Flight Track Log - Related Links

Times and Time Zones

All times are in EDT time to prevent confusion due to time zone crossing. See the USC105 flight status page for this flight to view local times or setup timezone preferences in your user account.

Time Position Orientation Groundspeed Altitude Reporting Facility
EDT Latitude Longitude Course Direction KTS MPH feet Rate Location/Type
23:04 41.5331 -81.7231 314° West 98 113 2,000  Level Cleveland Center
23:05 41.5475 -81.7594 298° West 125 144 2,600 496 Climbing Cleveland Center
23:06 41.5636 -81.8014 297° West 134 154 3,000 397 Climbing Cleveland Center
23:07 41.5819 -81.8461 299° West 134 154 3,400 397 Climbing Cleveland Center
23:08 41.6003 -81.8908 299° West 131 151 3,800 344 Climbing Cleveland Center
23:09 41.6142 -81.9383 291° West 133 153 4,100 298 Climbing Cleveland Center
23:10 41.6283 -81.9861 292° West 135 155 4,400 446 Climbing Cleveland Center
23:11 41.6422 -82.0308 293° West 128 147 5,000 537 Climbing Cleveland Center
23:12 41.6564 -82.0728 294° West 128 147 5,500 446 Climbing Cleveland Center
23:13 41.6703 -82.1203 291° West 132 152 5,900 500 Climbing Cleveland Center
23:14 41.6864 -82.1653 296° West 130 150 6,500 595 Climbing Cleveland Center
23:15 41.7003 -82.2044 295° West 127 146 7,100 567 Climbing Cleveland Center
23:16 41.7183 -82.2550 296° West 128 147 7,700 375 Climbing Cleveland Center
23:17 41.7303 -82.2997 290° West 129 148 7,900 142 Climbing Cleveland Center
23:18 41.7461 -82.3531 292° West 151 174 8,000  Climbing Cleveland Center
23:19 41.7644 -82.3869 306° West 157 181 7,900 -69 Descending Cleveland Center
23:19 41.7783 -82.4264 295° West 159 183 7,900  Level Cleveland Center
23:20 41.7942 -82.4769 293° West 158 182 7,900  Level Cleveland Center
23:21 41.8119 -82.5306 294° West 158 182 7,900  Level Cleveland Center
23:22 41.8339 -82.5925 295° West 157 181 7,900  Level Cleveland Center
23:23 41.8539 -82.6433 298° West 158 182 7,900  Level Cleveland Center
23:25 41.8756 -82.7053 295° West 158 182 7,900  Level Cleveland Center
23:26 41.8978 -82.7564 300° West 159 183 7,900  Level Cleveland Center
23:27 41.9281 -82.8019 312° West 164 189 7,900  Level Cleveland Center
23:28 41.9603 -82.8561 309° West 162 186 7,900  Level Cleveland Center
23:29 41.9886 -82.8992 312° West 161 185 7,900  Level Cleveland Center
23:30 42.0128 -82.9447 306° West 163 188 7,900  Level Cleveland Center
23:31 42.0408 -82.9933 308° West 163 188 7,900  Level Cleveland Center
23:32 42.0628 -83.0444 300° West 156 180 7,900 -55 Level Cleveland Center
23:32 42.0786 -83.0869 297° West 156 180 7,800 -330 Descending Cleveland Center
23:33 42.1003 -83.1383 300° West 165 190 7,300 -694 Descending Cleveland Center
23:34 42.1219 -83.2008 295° West 177 204 6,400 -843 Descending Cleveland Center
23:35 42.1456 -83.2606 298° West 178 205 5,600 -744 Descending Cleveland Center
23:36 42.1672 -83.3147 298° West 174 200 4,900 -362 Descending Cleveland Center
23:37 42.1742 -83.3653 281° West 142 163 4,900 -626 Level Cleveland Center
23:38 42.1789 -83.4300 276° West 171 197 3,700 -1,190 Descending Cleveland Center
23:39 42.1961 -83.4925 290° West 197 227 2,500 -1,091 Descending Cleveland Center
23:40 42.2072 -83.5519 284° West 145 167 1,500 -1,000 Descending Cleveland Center
23:42 42.2333 -83.5167 270° West  Level FlightAware Approximate
23:49 42.2393 -83.5310 270° West  Level Estimated
23:50 42.2393 -83.5310 270° West  Level Estimated

Login

Don't have an account? Register now (free) for customized features, flight alerts, and more!